Location: La Pernelle
(49.6188°N, 1.2999°W)
Time: 11:22:48
(UTC+00:00)

CZ-2C R/B - Pass Details

Date: 12 June 2021
Orbit: 640 x 704 km, 98.3° (Epoch: 27 July)

Event Time Altitude Azimuth Distance (km) Brightness Sun altitude
Rises 21:05:40 0° 15° (NNE) 3,086 7.7 -7.0°
Reaches altitude 10° 21:07:56 10° 16° (NNE) 2,171 6.8 -7.2°
Maximum altitude 21:12:42 82° 103° (ESE) 717 3.8 -7.7°
Drops below altitude 10° 21:17:29 10° 193° (SSW) 2,168 6.0 -8.2°
Sets 21:19:44 0° 194° (SSW) 3,082 6.8 -8.4°
